[[{"header":{"parameterUnit":"m.s-1","parameterCategory":1,"la1":30.2991,"la2":30.254,"lo1":-89.0895,"lo2":-89.0444,"dx":0.0017,"dy":0.0017,"nx":28,"ny":28,"refTime":"2022-11-08T09:00:00:Z","depth":0,"parameterNumber":2,"parameterNumberName":"U-component_of_WINDS"},"data":[0,0,0,0,0,0,0,0,0,0,0,0,0,0,0,0,0,0,0,0,0,0,0,0,0,0,0,0,0,0,0,0,0,0,0,0,0,0,0,0,0,0,0,0,0,0,0,0,0,0,0,0,0,0,0,0,0,0,-6.2359,-6.236,0,-6.2383,-6.2383,-6.2383,-6.2251,-6.2248,-6.2244,-6.224,-6.2263,-6.2267,-6.2271,0,0,0,0,0,0,0,0,0,0,0,0,0,-6.22,-6.2203,-6.2359,-6.236,-6.236,-6.2383,-6.2383,-6.2383,-6.2252,-6.2247,-6.2243,-6.2238,-6.2262,-6.2267,-6.2272,0,0,0,0,0,0,0,0,0,0,0,0,0,-6.2251,-6.2204,-6.2359,-6.2297,-6.2292,-6.2383,-6.2383,-6.2384,-6.2253,-6.2247,-6.2242,-6.2236,-6.226,-6.2266,-6.2272,-6.2424,0,0,-6.2291,-6.2294,0,0,0,0,0,0,0,0,-6.2248,-6.2257,-6.2306,-6.2302,-6.2296,-6.2308,-6.2335,-6.2397,-6.2254,-6.2268,-6.224,-6.2234,-6.2283,-6.2287,-6.2304,-6.2425,-6.2426,-6.2292,-6.2296,-6.2298,-6.23,0,0,0,0,0,0,0,-6.2245,-6.2255,-6.2369,-6.2307,-6.2301,-6.2268,-6.2269,-6.2346,-6.2307,-6.2266,-6.2257,-6.2261,-6.2279,-6.2298,-6.2303,-6.2426,-6.2292,-6.2297,-6.2301,-6.2304,-6.2673,-6.2679,0,0,0,0,0,0,-6.225,-6.2253,-6.2368,-6.2369,-6.2258,-6.2275,-6.2276,-6.231,-6.2305,-6.2299,-6.2266,-6.2255,-6.229,-6.2296,-6.2303,-6.2481,-6.2298,-6.2304,-6.2308,-6.2667,-6.2675,-6.2681,0,0,0,0,0,0,-6.2247,-6.2261,-6.2367,-6.2309,-6.232,-6.2284,-6.2323,-6.2314,-6.2332,-6.2305,-6.2298,-6.2293,-6.2286,-6.2295,-6.2395,-6.248,-6.2307,-6.2313,-6.266,-6.2669,-6.2678,-6.2837,0,0,0,0,0,0,-6.2243,-6.2261,-6.2318,-6.2311,-6.2323,-6.2459,-6.2328,-6.2318,-6.2344,-6.2329,-6.2329,-6.2323,-6.2282,-6.2387,-6.2401,-6.2485,-6.2317,-6.2652,-6.2664,-6.2675,-6.2824,-6.285,-6.2873,0,0,0,0,0,-6.2237,-6.2362,-6.2322,-6.2337,-6.2394,-6.2464,-6.2471,-6.2422,-6.2351,-6.2408,-6.2391,-6.2323,-6.2468,-6.2398,-6.2413,-6.25,-6.2647,-6.2661,-6.2674,-6.2813,-6.2845,-6.2872,0,0,0,0,0,0,-6.238,-6.236,-6.2315,-6.2441,-6.2456,-6.2442,-6.2512,-6.2458,-6.2492,-6.2477,-6.2414,-6.2415,-6.2526,-6.2523,-6.2445,-6.2647,-6.2545,-6.2562,-6.2645,-6.2675,-6.2699,-6.2698,-6.2323,0,0,0,0,0,-6.2426,-6.2485,-6.2464,-6.2577,-6.2586,-6.2549,-6.2577,-6.2538,-6.255,-6.2555,-6.2545,-6.2559,-6.2608,-6.2641,-6.2684,-6.2822,-6.282,-6.289,-6.2914,-6.2934,-6.295,-6.3023,-6.3054,-6.2726,-6.2726,-6.2726,0,0,-6.2521,-6.2518,-6.2559,-6.2605,-6.2612,-6.2674,-6.2554,-6.2625,-6.267,-6.2566,-6.266,-6.2654,-6.2665,-6.2785,-6.2837,-6.2786,-6.304,-6.2952,-6.2968,-6.2973,-6.3041,-6.3072,-6.3099,-6.2736,-6.2734,-6.2732,0,0,-6.2727,-6.2731,-6.2825,-6.2834,-6.2846,-6.282,-6.2843,-6.2838,-6.283,-6.2923,-6.2846,-6.2899,-6.2984,-6.2996,-6.3013,-6.3224,-6.3163,-6.3239,-6.3368,-6.3439,-6.3465,-6.3488,-6.3563,-6.3591,-6.3255,-6.3256,-6.3256,0,-6.2845,-6.2936,-6.2881,-6.2957,-6.298,-6.2888,-6.2984,-6.2995,-6.302,-6.3038,-6.2979,-6.3085,-6.3086,-6.3207,-6.3259,-6.3276,-6.33,-6.3239,-6.3466,-6.3488,-6.3508,-6.358,-6.3608,-6.3265,-6.3264,-6.3263,-6.3262,0,-6.3079,-6.3144,-6.3218,-6.3246,-6.3277,-6.3362,-6.332,-6.3358,-6.3316,-6.3297,-6.3393,-6.3392,-6.3433,-6.3459,-6.3419,-6.3575,-6.3543,-6.3477,-6.3373,-6.355,-6.3616,-6.3643,-6.3278,-6.3275,-6.3272,-6.327,0,0,-6.3376,-6.3372,-6.34,-6.3412,-6.3418,-6.3466,-6.3547,-6.3588,-6.3622,-6.3642,-6.3709,-6.3783,-6.3722,-6.3741,-6.3702,-6.3765,-6.3932,-6.369,-6.3689,-6.3736,-6.4105,-6.4155,-6.4188,-6.3892,-6.3897,-6.3901,-6.4104,0,-6.3577,-6.3716,-6.367,-6.3811,-6.3869,-6.3784,-6.3854,-6.3866,-6.385,-6.3896,-6.3878,-6.3932,-6.3847,-6.3858,-6.3917,-6.39,-6.4006,-6.3884,-6.3953,-6.3956,-6.3953,-6.4222,-6.4275,-6.4467,-6.4129,-6.4134,-6.4137,0,-6.3831,-6.3863,-6.401,-6.4006,-6.4029,-6.4094,-6.4127,-6.4174,-6.4185,-6.4168,-6.4191,-6.4138,-6.4217,-6.4113,-6.4221,-6.414,-6.4165,-6.4161,-6.4167,-6.4172,-6.4058,-6.4234,-6.4527,-6.4556,-6.4177,-6.4174,-6.4171,0,-6.4033,-6.4112,-6.421,-6.4223,-6.4221,-6.4268,-6.427,-6.4275,-6.4303,-6.4332,-6.435,-6.4388,-6.4409,-6.444,-6.4399,-6.4327,-6.4513,-6.4406,-6.4502,-6.4503,-6.4545,-6.4543,-6.4847,-6.4562,-6.4561,-6.4561,-6.456,0,-6.4264,-6.4357,-6.4301,-6.4362,-6.4464,-6.4409,-6.4512,-6.4503,-6.4509,-6.4566,-6.4494,-6.4549,-6.4491,-6.4541,-6.4509,-6.4604,-6.4614,-6.4603,-6.4593,-6.4609,-6.4611,-6.4625,-6.4611,-6.4568,-6.4566,-6.4565,-6.4564,0,-6.4507,-6.4473,-6.4574,-6.4565,-6.4564,-6.464,-6.4631,-6.4687,-6.4666,-6.4739,-6.4753,-6.472,-6.4775,-6.4737,-6.4791,-6.477,-6.4894,-6.4866,-6.4891,-6.4883,-6.4981,-6.4973,-6.5305,-6.5345,-6.5034,-6.5037,-6.504,0,-6.4656,-6.4726,-6.4724,-6.4757,-6.4764,-6.4818,-6.4846,-6.4795,-6.4827,-6.4845,-6.4899,-6.4948,-6.4984,-6.5076,-6.5056,-6.5098,-6.507,-6.5183,-6.5076,-6.509,-6.5072,-6.5069,-6.5075,-6.5205,-6.5209,-6.5212,-6.5214,0,-6.4925,-6.4905,-6.4948,-6.4987,-6.5022,-6.505,-6.5071,-6.5103,-6.5051,-6.509,-6.5146,-6.5174,-6.523,-6.528,-6.5314,-6.5315,-6.5257,-6.5249,-6.5273,-6.529,-6.5302,-6.5297,-6.495,-6.5241,-6.5239,-6.5237,-6.5235,-6.5234,-6.5125,-6.5184,-6.5192,-6.5243,-6.5254,-6.5276,-6.5327,-6.5313,-6.5358,-6.54,-6.5367,-6.5434,-6.5443,-6.5483,-6.5491,-6.5542,-6.5495,-6.5531,-6.554,-6.5549,-6.5563,-6.5294,-6.5548,-6.5547,-6.5546,-6.5546,-6.5545,0,-6.5391,-6.5392,-6.5439,-6.5472,-6.5512,-6.5454,-6.5475,-6.5512,-6.5572,-6.5585,-6.5623,-6.5687,-6.5734,-6.5719,-6.5762,-6.5805,-6.578,-6.5818,-6.5815,-6.5816,-6.5602,-6.5577,-6.5838,-6.5838,-6.5838,-6.5838,-6.5838,-6.5838,-6.5533,-6.5629,-6.561,-6.5711,-6.5711,-6.5776,-6.5793,-6.5812,-6.5823,-6.5898,-6.5937,-6.5927,-6.5929,-6.5971,-6.6012,-6.6006,-6.6026,-6.6074,-6.6059,-6.586,-6.5831,-6.5803,-6.5779,-6.6079,-6.6079,-6.6268,-6.627,-6.6271]},{"header":{"parameterUnit":"m.s-1","parameterCategory":1,"la1":30.2991,"la2":30.254,"lo1":-89.0895,"lo2":-89.0444,"dx":0.0017,"dy":0.0017,"nx":28,"ny":28,"refTime":"2022-11-08T09:00:00:Z","depth":0,"parameterNumber":3,"parameterNumberName":"V-component_of_WINDS"},"data":[0,0,0,0,0,0,0,0,0,0,0,0,0,0,0,0,0,0,0,0,0,0,0,0,0,0,0,0,0,0,0,0,0,0,0,0,0,0,0,0,0,0,0,0,0,0,0,0,0,0,0,0,0,0,0,0,0,0,-3.533,-3.5331,0,-3.5397,-3.5398,-3.5398,-3.5374,-3.5372,-3.5371,-3.5369,-3.5436,-3.5439,-3.5442,0,0,0,0,0,0,0,0,0,0,0,0,0,-3.5177,-3.518,-3.533,-3.5331,-3.5331,-3.5397,-3.5398,-3.5399,-3.5374,-3.5372,-3.537,-3.5368,-3.5435,-3.5439,-3.5443,0,0,0,0,0,0,0,0,0,0,0,0,0,-3.5244,-3.5181,-3.533,-3.5327,-3.5327,-3.5397,-3.5398,-3.5399,-3.5374,-3.5372,-3.537,-3.5368,-3.5434,-3.5438,-3.5443,-3.5518,0,0,-3.5458,-3.546,0,0,0,0,0,0,0,0,-3.524,-3.5249,-3.5327,-3.5327,-3.5328,-3.5375,-3.5368,-3.5439,-3.5375,-3.5356,-3.5369,-3.5367,-3.5417,-3.5423,-3.5441,-3.5521,-3.5524,-3.5458,-3.5461,-3.5463,-3.5464,0,0,0,0,0,0,0,-3.5235,-3.5246,-3.5356,-3.5328,-3.5329,-3.5321,-3.5328,-3.5382,-3.5399,-3.5358,-3.5356,-3.5365,-3.5417,-3.5436,-3.5442,-3.5525,-3.5458,-3.5462,-3.5465,-3.5467,-3.5669,-3.5671,0,0,0,0,0,0,-3.5231,-3.5243,-3.5354,-3.5358,-3.5277,-3.5326,-3.5334,-3.5362,-3.5398,-3.5401,-3.5367,-3.5363,-3.5429,-3.5437,-3.5444,-3.5534,-3.5463,-3.5468,-3.547,-3.5667,-3.567,-3.5672,0,0,0,0,0,0,-3.5228,-3.5241,-3.5351,-3.53,-3.5314,-3.5331,-3.5363,-3.5364,-3.5383,-3.5405,-3.5407,-3.5383,-3.5428,-3.5438,-3.55,-3.5536,-3.547,-3.5474,-3.5664,-3.5667,-3.5671,-3.5715,0,0,0,0,0,0,-3.5223,-3.524,-3.527,-3.5301,-3.5316,-3.5407,-3.5365,-3.5367,-3.5392,-3.5388,-3.5421,-3.5424,-3.5427,-3.5493,-3.5505,-3.5542,-3.5478,-3.566,-3.5665,-3.567,-3.571,-3.5719,-3.5727,0,0,0,0,0,-3.5218,-3.5279,-3.5271,-3.5285,-3.5354,-3.5409,-3.5418,-3.542,-3.5395,-3.5424,-3.5438,-3.5423,-3.553,-3.5499,-3.5512,-3.5551,-3.5658,-3.5664,-3.5669,-3.5706,-3.5717,-3.5727,0,0,0,0,0,0,-3.5251,-3.5283,-3.5275,-3.5348,-3.5376,-3.5405,-3.5442,-3.5432,-3.5467,-3.5462,-3.5463,-3.5471,-3.5535,-3.5549,-3.5514,-3.5625,-3.559,-3.5599,-3.5614,-3.5625,-3.5633,-3.5629,-3.5482,0,0,0,0,0,-3.5267,-3.531,-3.5335,-3.5397,-3.5412,-3.5424,-3.5448,-3.5448,-3.5476,-3.5488,-3.5506,-3.5534,-3.5573,-3.56,-3.5638,-3.5712,-3.5718,-3.5745,-3.5753,-3.576,-3.5768,-3.5807,-3.5819,-3.5691,-3.5691,-3.5691,0,0,-3.53,-3.5323,-3.535,-3.5404,-3.5426,-3.5469,-3.5435,-3.5482,-3.5514,-3.5495,-3.5555,-3.5569,-3.56,-3.5668,-3.5699,-3.5682,-3.5804,-3.5767,-3.5773,-3.5777,-3.5814,-3.5826,-3.5837,-3.5695,-3.5694,-3.5693,0,0,-3.5383,-3.5405,-3.5458,-3.5481,-3.5514,-3.5522,-3.5535,-3.5565,-3.5573,-3.5633,-3.562,-3.5657,-3.5726,-3.5748,-3.5769,-3.5858,-3.5846,-3.587,-3.5916,-3.5954,-3.5964,-3.5973,-3.6005,-3.6016,-3.5877,-3.5878,-3.5878,0,-3.542,-3.5486,-3.5487,-3.5536,-3.556,-3.5545,-3.5598,-3.5619,-3.5663,-3.5679,-3.566,-3.5745,-3.5765,-3.5838,-3.5859,-3.5877,-3.5891,-3.5867,-3.5963,-3.5972,-3.598,-3.601,-3.6022,-3.588,-3.588,-3.588,-3.5879,0,-3.5529,-3.5575,-3.5614,-3.5657,-3.5685,-3.5736,-3.5744,-3.5772,-3.5769,-3.5778,-3.5839,-3.5862,-3.5904,-3.5921,-3.5917,-3.5993,-3.5981,-3.5962,-3.5927,-3.5995,-3.6023,-3.6035,-3.5884,-3.5883,-3.5883,-3.5882,0,0,-3.5636,-3.5678,-3.5692,-3.5711,-3.5746,-3.5781,-3.583,-3.5872,-3.5896,-3.5926,-3.5967,-3.6025,-3.6007,-3.603,-3.6029,-3.6063,-3.6131,-3.604,-3.604,-3.6056,-3.6215,-3.6229,-3.6243,-3.6123,-3.6125,-3.6127,-3.6212,0,-3.5721,-3.5809,-3.5811,-3.5892,-3.5933,-3.5919,-3.5962,-3.5987,-3.5997,-3.6033,-3.6043,-3.6084,-3.6058,-3.6072,-3.6104,-3.6116,-3.6164,-3.611,-3.6161,-3.6163,-3.6154,-3.6258,-3.6273,-3.6353,-3.6223,-3.6225,-3.6227,0,-3.5833,-3.5867,-3.5952,-3.598,-3.5997,-3.6036,-3.6073,-3.6108,-3.6136,-3.6141,-3.6166,-3.6159,-3.6209,-3.6172,-3.6239,-3.6203,-3.6223,-3.6232,-3.6235,-3.6241,-3.6199,-3.6266,-3.6378,-3.639,-3.6244,-3.6243,-3.6242,0,-3.5902,-3.5969,-3.6028,-3.6044,-3.6079,-3.6106,-3.6121,-3.6147,-3.6171,-3.6204,-3.6219,-3.6257,-3.6277,-3.6306,-3.6309,-3.6282,-3.6377,-3.634,-3.6381,-3.6381,-3.6403,-3.6401,-3.652,-3.6415,-3.6415,-3.6415,-3.6415,0,-3.5997,-3.605,-3.6059,-3.6096,-3.6153,-3.6154,-3.6211,-3.6224,-3.6247,-3.6284,-3.6273,-3.6309,-3.6311,-3.6347,-3.635,-3.6405,-3.6414,-3.6419,-3.6419,-3.642,-3.642,-3.6434,-3.6429,-3.6418,-3.6418,-3.6417,-3.6416,0,-3.6085,-3.6093,-3.6157,-3.6184,-3.6191,-3.6233,-3.6255,-3.6289,-3.6297,-3.6345,-3.6357,-3.6369,-3.6411,-3.6417,-3.6466,-3.6468,-3.6534,-3.6528,-3.6525,-3.6524,-3.6565,-3.6561,-3.6698,-3.6715,-3.6599,-3.66,-3.6601,0,-3.6145,-3.6185,-3.6216,-3.6241,-3.6258,-3.6298,-3.6323,-3.6325,-3.6351,-3.6385,-3.6414,-3.6455,-3.6488,-3.6555,-3.6568,-3.6605,-3.66,-3.6645,-3.6606,-3.6605,-3.6601,-3.6599,-3.6602,-3.6653,-3.6655,-3.6656,-3.6656,0,-3.6252,-3.6254,-3.629,-3.6328,-3.6358,-3.6388,-3.6416,-3.6436,-3.6441,-3.6471,-3.6514,-3.6539,-3.6589,-3.6629,-3.6666,-3.668,-3.6669,-3.6669,-3.668,-3.6682,-3.6678,-3.6681,-3.6546,-3.6666,-3.6665,-3.6664,-3.6664,-3.6663,-3.6327,-3.6362,-3.6389,-3.643,-3.6451,-3.6477,-3.651,-3.6522,-3.6558,-3.66,-3.6598,-3.6645,-3.667,-3.6718,-3.6735,-3.6771,-3.6756,-3.6773,-3.6777,-3.6781,-3.6785,-3.6672,-3.6778,-3.6777,-3.6777,-3.6777,-3.6777,0,-3.6433,-3.6449,-3.6487,-3.6527,-3.6558,-3.6545,-3.6575,-3.6602,-3.6644,-3.6669,-3.6701,-3.675,-3.6788,-3.6804,-3.6842,-3.6868,-3.6863,-3.6877,-3.6876,-3.6879,-3.6797,-3.6783,-3.688,-3.688,-3.688,-3.688,-3.688,-3.688,-3.6492,-3.6549,-3.6554,-3.6622,-3.6637,-3.6684,-3.6702,-3.6726,-3.6745,-3.68,-3.6833,-3.6843,-3.6864,-3.6903,-3.6937,-3.6941,-3.6955,-3.6971,-3.6973,-3.6895,-3.6885,-3.6875,-3.6862,-3.6974,-3.6974,-3.7052,-3.7053,-3.7053]}]]